カタログに戻る

COSMOS 2251 DEB

運用中VLEO
NORAD 34452·DEBRIS·🇷🇺 Russia

打ち上げ Jun 16, 1993 から Plesetsk Cosmodrome

Loading…

次のパス (今後24時間)

TLE

最新Source: Space-Track

元期: Sep 14, 2026, 12:44 UTC

1 34452U 93036SV  26257.53087099  .00009657  00000-0  43610-3 0  9996
2 34452  74.0278 327.7827 0056899 329.7727  30.0191 15.19591589948422

AllMySatでCOSMOS 2251 DEBをリアルタイム追跡

Download on the App Store